Regional Weather Roundup
Issued by NWS

Home | Current Version | Previous Version | Text Only | Print | Product List | Glossary On
Versions: 1 2 3 4 5 6 7 8 9 10 11 12 13 14 15 16 17 18 19 20 21 22 23 24 25 26 27 28 29 30 31 32 33 34 35 36 37 38 39 40 41 42 43 44 45 46 47 48 49 50
000
ASUS44 KFWD 201115
RWRTX
NORTH TEXAS HOURLY WEATHER ROUNDUP
NATIONAL WEATHER SERVICE FORT WORTH TX
600 AM CDT WED SEP 20 2017

NOTE: "FAIR" INDICATES FEW OR NO CLOUDS BELOW 12,000 FEET WITH NO
SIGNIFICANT WEATHER AND/OR OBSTRUCTIONS TO VISIBILITY.

TXZ118-119-201200-
DALLAS/FORT WORTH METROPLEX

CITY           SKY/WX    TMP DP  RH WIND       PRES   REMARKS
DFW AIRPORT    PTCLDY    79  72  79 S15       29.84R
DALLAS LOVE    PTCLDY    79  71  76 S13       29.86R
FTW MEACHAM    CLEAR     79  72  79 S15       29.84R
DAL-EXECUTIVE  CLEAR     78  71  79 S10G18    29.86R
FTW-ALLIANCE   MOCLDY    78  71  79 S10       29.84R
FTW-NAS-JRB    PTCLDY    79  70  74 S14       29.84R
FTW-SPINKS     CLEAR     77  70  78 S9        29.87R
ARLINGTON      PTCLDY    77  73  87 S12       29.85R
GRAND PRAIRIE  PTCLDY    78  70  76 S9        29.87R
ADDISON        CLEAR     79  70  73 S14       29.87S
MESQUITE       CLEAR     76  71  83 S13       29.87R
LANCASTER      CLEAR     76  71  82 S10       29.88R
$$

TXZ091>094-102>105-117-120-121-131>134-201200-
NORTH CENTRAL TEXAS

CITY           SKY/WX    TMP DP  RH WIND       PRES   REMARKS
SHRMAN/DENISON CLEAR     77  72  84 S12       29.86R
GAINESVILLE    CLEAR     74  70  89 SE8       29.86R
BOWIE          CLEAR     74  71  89 SE7       29.84R
BRIDGEPORT     CLEAR     77  69  77 S8        29.85R
DECATUR        CLEAR     76  71  82 S12G17    29.83R
DENTON         CLEAR     76  72  87 S9        29.84R
MCKINNEY       CLEAR     77  73  87 S10       29.87R
BONHAM         CLOUDY    77  72  83 S14G20    29.87R
GREENVILLE     MOCLDY    81  73  78 S10       29.89R
ROCKWALL       CLEAR     77  72  83 S13G21    29.88R
TERRELL        MOCLDY    77  72  84 S9        29.88R
WAXAHACHIE     CLEAR     75  71  85 S8        29.88S
CLEBURNE       CLEAR     75  73  94 S12       29.88R
GRANBURY       CLEAR     78  71  77 SE9       29.86R
$$

TXZ083>090-098>101-113>116-127>130-139>142-154-155-201200-
WESTERN NORTH TEXAS

CITY           SKY/WX    TMP DP  RH WIND       PRES   REMARKS
WICHITA FALLS  MOCLDY    75  70  84 S14       29.78R
WF-KICKAPOO    CLEAR     75  71  87 S10G16    29.81S
VERNON         CLEAR     75  63  66 S16       29.77S
ABILENE        CLEAR     73  67  81 S14       29.83S
ABILENE-DYESS  CLEAR     75  66  72 S8        29.83R
GRAHAM         CLEAR     77  71  80 S9        29.81R
BRECKENRIDGE   CLEAR     78  69  75 S16G22    29.82S
CISCO          CLEAR     73  70  88 S14G21    29.86S FOG
EASTLAND       CLEAR     74  71  88 S9        29.85S
RANGER         CLEAR     74  70  88 S8        29.85S
MINERAL WELLS  CLEAR     76  70  82 S8        29.83R
STEPHENVILLE   CLEAR     74  69  83 S7        29.90R
COMANCHE       CLEAR     75  71  87 S14       29.87R
BROWNWOOD      CLEAR     73  72  94 S6        29.88R
COLEMAN        PTCLDY    70  67  90 S5        29.88S
$$

TXZ143>147-156>162-174-175-201200-
CENTRAL TEXAS

CITY           SKY/WX    TMP DP  RH WIND       PRES   REMARKS
WACO           CLOUDY    77  73  87 S17       29.87S
WACO-MCGREGOR  MOCLDY    77  73  87 S13       29.88S
HILLSBORO      CLEAR     77  72  86 SE12      29.88R
CORSICANA      CLEAR     76  74  93 S9        29.90R
MEXIA          MOCLDY    75  73  92 SE10      29.89S
HEARNE         MOCLDY    76  76 100 SE6       29.91R
CAMERON        CLEAR     76  74  92 S5        29.90R
TEMPLE         CLOUDY    76  74  93 S12       29.89S
KILLEEN        PTCLDY    74  71  90 S9        29.88R
FORT HOOD      CLEAR     73  71  92 S8        29.86R
GATESVILLE     CLEAR     75  72  88 S7        29.89S
HAMILTON       CLEAR     75  72  91 S13       29.89R
$$

TXZ095>097-106>112-122>126-135>138-148>153-164>167-201200-
EAST TEXAS

CITY           SKY/WX    TMP DP  RH WIND       PRES   REMARKS
PARIS          CLOUDY    77  73  87 S10       29.89R
SULPHUR SPRNGS CLOUDY    79  74  84 S12       29.90R
MOUNT PLEASANT CLOUDY    76  74  91 S8        29.91R
GILMER         PTCLDY    76  73  89 S9        29.91R
MINEOLA        CLOUDY    77  73  88 S9        29.89R
TYLER          MOCLDY    76  75  97 S12       29.90S
LONGVIEW       CLOUDY    77  76  96 S12       29.90R
MARSHALL       CLOUDY    75  72  89 S5        29.94R
ATHENS         CLOUDY    75  75 100 S6        29.90R
PALESTINE      CLOUDY    77  75  96 S6        29.92S
JACKSONVILLE   CLOUDY    76  75  99 S3        29.94S FOG
HENDERSON      CLOUDY    76  74  94 S3        29.93S
CENTER         CLOUDY    80  78  95 CALM      29.95R
NACOGDOCHES    CLOUDY    77  75  93 S5        29.94S
LUFKIN         CLOUDY    77  76  96 CALM      29.94R
$$

SUPPLEMENTAL OBSERVATIONS (NWS FORT WORTH AREA)

CITY           SKY/WX    TMP DP  RH WIND       PRES   REMARKS
DENISON DAM      N/A     79  72  78 S6          N/A
CADDO GRASSLND   N/A     79  72  78 S9          N/A
PAT MAYSE LAKE   N/A     79  77  94 SE7         N/A
GREENVILLE       N/A     79  73  83 S9          N/A
CEDAR HILL       N/A     77  70  78 S9          N/A
LBJ GRASSLAND    N/A     75  68  78 SE7         N/A
POSSUM KINGDOM   N/A     75  68  78 S8G16       N/A
GRANBURY         N/A     79  72  78 SE9         N/A
COMANCHE         N/A     75  70  83 S14         N/A
MCGREGOR         N/A     75  70  83 S18         N/A
TEMPLE           N/A     75  70  83 S5          N/A
LAKE LIMESTONE   N/A     75  70  83 S7          N/A
ATHENS           N/A     77  75  94 S10         N/A
$$

SUPPLEMENTAL OBSERVATIONS (NWS NORMAN AREA)

CITY           SKY/WX    TMP DP  RH WIND       PRES   REMARKS
GOODLETT         N/A     69  62  79 S9        29.77S
ODELL            N/A     72  66  81 S14       29.78S
CROWELL          N/A     72  64  76 S12       29.79S
KNOX CITY        N/A     71  61  70 S9        29.81R
SEYMOUR          N/A     73  67  80 S15       29.79S
MILLERS CREEK    N/A     73  64  73 S9          N/A
$$

SUPPLEMENTAL OBSERVATIONS (NWS SAN ANGELO AREA)

CITY           SKY/WX    TMP DP  RH WIND       PRES   REMARKS
WEINERT          N/A     71  63  75 S9        29.81S
HASKELL          N/A     73  62  68 S7        29.81F
THROCKMORTON     N/A     73  68  85 S8        29.82S
STAMFORD         N/A     73  65  75 S9        29.83R
CLYDE            N/A     72  68  88 S16       29.86S
HAMBY            N/A     73  64  73 SW13G22     N/A
IVIE RESERVOIR   N/A     72  66  83 SE7         N/A
COLORADO BEND    N/A     73  68  83 S10         N/A
$$

SUPPLEMENTAL OBSERVATIONS (NWS SHREVEPORT AREA)

CITY           SKY/WX    TMP DP  RH WIND       PRES   REMARKS
CLARKSVILLE      N/A     77  72  83 S7          N/A
TEXARKANA        N/A     75  73  94 S2          N/A
LINDEN           N/A     75  70  83 S2          N/A
CADDO LAKE       N/A     77  72  83 S2          N/A
GILMER           N/A     77  73  88 SW3G13      N/A
HENDERSON        N/A     75  73  94 S5          N/A
LUFKIN           N/A     77  75  94 MISG        N/A
S SABINE NF      N/A     75  73  94 CALM        N/A
$$

SUPPLEMENTAL OBSERVATIONS ARE A COLLECTION OF AUTOMATED INSTRUMENTS
THAT ARE MAINTAINED BY A VARIETY OF FEDERAL AND STATE AGENCIES.
CERTAIN ELEMENTS...SUCH AS HUMIDITY VALUES AND SUSTAINED WIND
SPEEDS...MAY BE APPROXIMATED.




USA.gov is the U.S. government's official web portal to all federal, state and local government web resources and services.